Overview Statistics Trail Chart Weather Telemetry Raw packets
 

This is the latest recevied weather packets stored in our database for station/object K2CAT. If no packets are shown the sender has not sent any weather packets the latest 10 day(s).

<< 34 35 36 37 38 39 40 >>
Time Temp. Humidity Pressure Rain* Wind** Luminosity Snow
1777471741 16.11° C 59% 1013.9 hPa 0 mm - 138 W/m² -
1777471438 16.11° C 58% 1014 hPa 0 mm - 127 W/m² -
1777471134 15.56° C 60% 1013.9 hPa 0 mm - 104 W/m² -
1777470831 15° C 62% 1014.2 hPa 0 mm - 82 W/m² -
1777470529 15° C 61% 1014.2 hPa 0 mm - 98 W/m² -
1777470224 15° C 60% 1014.5 hPa 0 mm - 117 W/m² -
1777469921 15° C 62% 1014.6 hPa 0 mm - 104 W/m² -
1777469616 14.44° C 61% 1014.5 hPa 0 mm - 155 W/m² -
1777469312 14.44° C 62% 1014.4 hPa 0 mm - 115 W/m² -
1777469007 14.44° C 63% 1014.9 hPa 0 mm - 157 W/m² -
1777468703 14.44° C 63% 1014.9 hPa 0 mm - 122 W/m² -
1777468399 14.44° C 62% 1015 hPa 0 mm - 117 W/m² -
1777468095 13.89° C 63% 1015.4 hPa 0 mm - 157 W/m² -
1777467792 13.89° C 62% 1015.7 hPa 0 mm - 142 W/m² -
1777467487 13.89° C 63% 1015.7 hPa 0 mm - 152 W/m² -
1777467182 13.89° C 63% 1015.6 hPa 0 mm - 164 W/m² -
1777466880 13.89° C 62% 1015.8 hPa 0 mm - 151 W/m² -
1777466578 13.89° C 62% 1015.6 hPa 0 mm - 146 W/m² -
1777466274 13.89° C 63% 1015.8 hPa 0 mm - 112 W/m² -
1777465970 13.89° C 62% 1015.8 hPa 0 mm - 133 W/m² -
1777465666 13.89° C 63% 1015.7 hPa 0 mm - 174 W/m² -
1777465362 13.33° C 65% 1015.9 hPa 0 mm - 106 W/m² -
1777465065 12.78° C 65% 1015.6 hPa 0 mm - 73 W/m² -
1777464756 12.78° C 64% 1015.8 hPa 0 mm - 72 W/m² -
1777464453 12.78° C 65% 1015.8 hPa 0 mm - 65 W/m² -

* Rain latest hour (hover to see other rain measurements)
** Current wind speed in m/s (hover to see current wind gust speed)